Stations météo

réclame
Mon MeteoGroup
St-Auban-Sur-Durance, France (7588): Température de l'air & dewpoint: 17.10.2018 12:00:00 - 23.10.2018 12:00:00 (CEST)St-Auban-Sur-Durance, France (7588): Température de l'air 5cm: 17.10.2018 12:00:00 - 23.10.2018 12:00:00 (CEST)St-Auban-Sur-Durance, France (7588): Température de l'air -20cm: 17.10.2018 12:00:00 - 23.10.2018 12:00:00 (CEST)St-Auban-Sur-Durance, France (7588): Vitesse du vent & gusts: 17.10.2018 12:00:00 - 23.10.2018 12:00:00 (CEST)St-Auban-Sur-Durance, France (7588): Direction du vent: 17.10.2018 12:00:00 - 23.10.2018 12:00:00 (CEST)St-Auban-Sur-Durance, France (7588): reduced air pressure: 17.10.2018 12:00:00 - 23.10.2018 12:00:00 (CEST)St-Auban-Sur-Durance, France (7588): visibility: 17.10.2018 12:00:00 - 23.10.2018 12:00:00 (CEST)St-Auban-Sur-Durance, France (7588): Ensoleillement: 17.10.2018 12:00:00 - 23.10.2018 12:00:00 (CEST)St-Auban-Sur-Durance, France (7588): Quantités de précipitations: 17.10.2018 12:00:00 - 23.10.2018 12:00:00 (CEST)
Date & Time tt [°C] td [°C] tt 5cm [°C] tt -20cm [°C] ff [km/h] ff [knt] fx [km/h] fx [knt] dd ppp [hPa] vv [km] sd [min] rr [mm]
23.10.2018 12:00:00 - - - - - - - - - - - - -
23.10.2018 11:00:00 12,8 5,5 15,4 15,3 19 10 45 24 NE 1024,9 19 60 0,0
23.10.2018 10:00:00 10,7 4,8 11,7 15,4 19 10 41 22 ENE 1025,2 19 60 0,0
23.10.2018 09:00:00 8,9 4,7 8,8 15,6 21 11 42 23 ENE 1025,3 19 38 0,0
23.10.2018 08:00:00 8,7 4,3 9,0 15,7 13 7 41 22 ENE 1025,1 19 0 0,0
23.10.2018 07:00:00 9,0 4,4 9,0 15,9 14 7 39 21 NE 1024,8 20 0 0,0
23.10.2018 06:00:00 9,1 4,5 9,3 16,0 16 9 41 22 NE 1024,7 20 0 0,0
23.10.2018 05:00:00 9,7 4,7 9,7 16,2 19 10 39 21 NE 1024,3 20 0 0,0
23.10.2018 04:00:00 9,7 5,1 10,0 16,3 18 10 34 19 NE 1024,5 18 0 0,0
23.10.2018 03:00:00 10,3 5,3 10,5 16,5 15 8 32 17 NE 1024,4 20 0 0,0
23.10.2018 02:00:00 10,9 5,4 11,0 16,6 16 8 35 19 NE 1024,5 20 0 0,0
23.10.2018 01:00:00 11,7 5,1 11,7 16,7 16 8 35 19 NE 1024,4 20 0 0,0
23.10.2018 00:00:00 12,6 5,3 12,7 16,8 17 9 43 23 NE 1023,2 20 0 0,0
22.10.2018 23:00:00 12,9 5,1 13,0 17,0 20 11 39 21 NNE 1022,9 20 0 0,0
22.10.2018 22:00:00 13,4 5,5 13,6 17,1 23 12 38 20 NNE 1021,7 20 0 0,0
22.10.2018 21:00:00 14,0 5,6 11,7 17,1 18 10 40 21 N 1021,0 20 0 0,0
22.10.2018 20:00:00 12,3 10,2 11,1 17,2 6 3 10 5 E 1021,0 18 0 0,0
22.10.2018 19:00:00 13,9 10,5 13,3 17,1 2 1 9 5 E 1020,1 20 8 0,0
22.10.2018 18:00:00 17,5 10,4 19,7 17,0 6 3 11 6 SW 1018,8 20 60 0,0
22.10.2018 17:00:00 18,2 10,1 22,9 16,8 6 3 13 7 SSW 1018,4 20 60 0,0
22.10.2018 16:00:00 18,4 10,0 23,8 16,6 6 3 18 10 S 1018,5 20 60 0,0
22.10.2018 15:00:00 17,6 10,9 22,7 16,3 11 6 16 9 SSW 1019,3 20 57 0,0
22.10.2018 14:00:00 17,1 10,5 23,2 16,2 6 3 14 7 S 1019,6 20 60 0,0
22.10.2018 13:00:00 16,2 11,1 17,8 16,2 4 2 11 6 SW 1020,4 19 28 0,0
22.10.2018 12:00:00 13,6 8,6 15,2 16,2 2 1 5 3 ENE 1021,1 20 0 0,0
22.10.2018 11:00:00 12,4 8,7 12,9 16,2 2 1 11 6 ENE 1021,3 20 0 0,0
22.10.2018 10:00:00 11,1 8,3 11,9 16,2 5 3 11 6 ENE 1021,5 19 0 0,0
22.10.2018 09:00:00 10,4 8,3 10,9 16,3 4 2 9 5 NE 1021,3 20 0 0,0
22.10.2018 08:00:00 9,8 7,9 10,4 16,4 4 2 8 5 NE 1021,1 20 0 0,0
22.10.2018 07:00:00 9,5 7,8 10,1 16,5 4 2 9 5 ENE 1020,9 13 0 0,0
22.10.2018 06:00:00 9,0 7,9 8,0 16,7 5 3 11 6 NE 1021,1 16 0 0,0
22.10.2018 05:00:00 8,2 7,0 8,1 16,8 3 1 10 5 E 1020,7 19 0 0,0
22.10.2018 04:00:00 8,7 7,5 8,3 16,9 5 3 9 5 ESE 1020,4 17 0 0,0
22.10.2018 03:00:00 10,0 7,9 9,1 17,1 6 3 11 6 ESE 1020,0 20 0 0,0
22.10.2018 02:00:00 11,9 7,4 10,6 17,2 8 5 16 9 N 1019,2 20 0 0,0
22.10.2018 01:00:00 12,6 7,7 10,7 17,3 5 3 17 9 E 1018,5 20 0 0,0
22.10.2018 00:00:00 13,7 7,9 11,9 17,4 2 1 18 10 E 1017,6 20 0 0,0
21.10.2018 23:00:00 14,6 8,3 13,4 17,5 7 4 22 12 ENE 1016,7 20 0 0,0
21.10.2018 22:00:00 15,6 8,1 15,2 17,6 10 5 23 12 NE 1015,7 20 0 0,0
21.10.2018 21:00:00 17,3 7,9 16,4 17,7 12 6 31 17 NNE 1014,4 20 0 0,0
21.10.2018 20:00:00 17,1 8,8 14,5 17,7 2 1 15 8 NNE 1013,6 20 0 0,0
21.10.2018 19:00:00 17,8 13,1 17,2 17,6 10 5 19 11 W 1013,6 20 10 0,0
21.10.2018 18:00:00 21,4 13,3 23,5 17,4 13 7 18 10 SW 1012,8 20 60 0,0
21.10.2018 17:00:00 23,3 10,7 28,1 17,2 8 4 17 9 SW 1013,1 20 60 0,0
21.10.2018 16:00:00 23,2 10,6 28,3 17,0 9 5 21 12 NNE 1013,8 20 60 0,0
21.10.2018 15:00:00 22,5 9,6 28,4 16,8 9 5 16 9 NNE 1014,9 20 60 0,0
21.10.2018 14:00:00 21,2 10,1 26,5 16,6 9 5 28 15 NNE 1016,4 20 60 0,0
21.10.2018 13:00:00 19,8 9,4 24,1 16,5 14 8 32 17 NNE 1017,8 20 60 0,0
21.10.2018 12:00:00 17,9 9,5 22,3 16,5 17 9 35 19 NE 1019,1 20 60 0,0
21.10.2018 11:00:00 16,1 9,0 19,7 16,6 13 7 34 18 NE 1020,4 20 60 0,0
21.10.2018 10:00:00 14,6 8,8 15,6 16,7 10 6 22 12 NE 1021,4 20 42 0,0
21.10.2018 09:00:00 13,2 9,1 10,2 16,8 9 5 24 13 ENE 1021,6 20 39 0,0
21.10.2018 08:00:00 11,1 9,0 10,3 16,9 4 2 16 8 ESE 1021,9 20 0 0,0
21.10.2018 07:00:00 12,2 9,2 11,0 17,0 4 2 24 13 ESE 1022,0 20 0 0,0
21.10.2018 06:00:00 11,9 9,3 11,3 17,1 4 2 20 11 ESE 1022,6 20 0 0,0
21.10.2018 05:00:00 13,6 10,0 13,0 17,3 7 4 25 14 E 1022,3 20 0 0,0
21.10.2018 04:00:00 14,1 10,7 14,0 17,3 12 7 26 14 NE 1022,3 20 0 0,0
21.10.2018 03:00:00 14,6 11,0 14,5 17,4 11 6 24 13 NE 1022,6 20 0 0,2
21.10.2018 02:00:00 14,8 11,4 14,1 17,6 7 4 17 9 NE 1022,8 20 0 0,0
21.10.2018 01:00:00 14,6 12,5 12,8 17,6 6 3 15 8 E 1022,9 20 0 0,0
21.10.2018 00:00:00 12,8 11,7 12,6 17,8 6 4 13 7 NE 1023,6 17 0 0,0
20.10.2018 23:00:00 12,9 11,6 12,4 17,9 8 4 10 5 NE 1023,7 17 0 0,0
20.10.2018 22:00:00 13,9 11,9 13,5 17,9 4 2 10 5 NE 1023,3 20 0 0,0
20.10.2018 21:00:00 14,9 12,2 14,1 18,0 2 1 10 6 S 1023,2 20 0 0,0
20.10.2018 20:00:00 16,5 12,6 15,3 17,9 4 2 11 6 W 1022,7 20 0 0,0
20.10.2018 19:00:00 18,5 12,9 18,5 17,9 7 4 21 12 W 1021,9 20 6 0,0
20.10.2018 18:00:00 21,2 13,1 22,5 17,7 15 8 24 13 SSW 1020,8 20 60 0,0
20.10.2018 17:00:00 23,0 12,0 26,5 17,5 14 8 22 12 SW 1020,1 20 60 0,0
20.10.2018 16:00:00 23,1 12,4 27,9 17,2 11 6 19 10 S 1020,0 20 60 0,0
20.10.2018 15:00:00 23,4 11,8 28,9 16,9 11 6 17 9 SW 1020,4 20 60 0,0
20.10.2018 14:00:00 22,8 10,6 27,8 16,8 3 1 12 7 W 1021,2 20 60 0,0
20.10.2018 13:00:00 20,7 11,3 24,6 16,6 6 3 14 8 ENE 1022,4 20 60 0,0
20.10.2018 12:00:00 18,6 11,4 23,2 16,6 8 4 20 11 NE 1023,3 20 58 0,0
20.10.2018 11:00:00 16,8 11,3 19,1 16,6 9 5 21 11 NNE 1023,9 20 60 0,0
20.10.2018 10:00:00 14,4 11,5 15,0 16,7 5 3 10 6 ESE 1023,9 20 60 0,0
20.10.2018 09:00:00 12,1 10,8 11,2 16,8 4 2 9 5 ESE 1023,9 20 31 0,0
20.10.2018 08:00:00 11,8 10,5 10,5 17,0 5 3 12 7 NE 1023,2 20 0 0,0
20.10.2018 07:00:00 10,7 10,4 10,7 17,1 6 3 10 5 NNE 1022,8 12 0 0,0
20.10.2018 06:00:00 10,8 10,5 10,7 17,2 5 3 15 8 ENE 1022,4 11 0 0,0
20.10.2018 05:00:00 11,1 10,6 10,7 17,3 6 3 11 6 NE 1022,0 13 0 0,0
20.10.2018 04:00:00 11,4 10,9 11,0 17,4 6 4 19 10 NE 1021,7 14 0 0,0
20.10.2018 03:00:00 11,5 11,0 11,1 17,5 4 2 11 6 E 1021,8 12 0 0,0
20.10.2018 02:00:00 11,7 11,4 11,5 17,6 6 3 10 5 ENE 1021,7 7 0 0,2
20.10.2018 01:00:00 12,5 11,9 12,0 17,8 7 4 12 7 NNE 1021,4 14 0 0,0
20.10.2018 00:00:00 12,8 12,2 12,4 17,8 4 2 11 6 NE 1020,9 16 0 0,0
19.10.2018 23:00:00 13,2 12,1 12,6 17,9 3 1 7 4 NNE 1020,5 16 0 0,0
19.10.2018 22:00:00 14,1 12,7 13,7 18,0 0 0 8 5 N 1020,2 20 0 0,0
19.10.2018 21:00:00 15,3 13,3 14,7 18,0 0 0 7 4 N 1019,3 20 0 0,0
19.10.2018 20:00:00 16,7 13,8 15,7 18,0 5 3 8 4 WNW 1018,3 20 0 0,0
19.10.2018 19:00:00 19,1 14,1 18,6 17,9 8 4 21 11 SW 1017,1 20 23 0,0
19.10.2018 18:00:00 21,6 14,7 23,2 17,7 18 10 24 13 SW 1015,9 20 60 0,0
19.10.2018 17:00:00 23,5 14,5 27,7 17,4 8 4 13 7 SW 1015,2 20 60 0,0
19.10.2018 16:00:00 23,8 13,6 28,8 17,2 7 4 13 7 SSW 1015,2 20 60 0,0
19.10.2018 15:00:00 23,0 11,7 28,8 17,0 4 2 8 4 SSW 1015,7 19 60 0,0
19.10.2018 14:00:00 21,6 11,9 26,7 16,7 3 2 9 5 N 1016,8 20 60 0,0
19.10.2018 13:00:00 19,4 11,7 23,4 16,7 4 2 8 4 E 1017,9 20 60 0,0
19.10.2018 12:00:00 16,9 11,8 16,9 16,7 3 1 6 3 ENE 1018,4 20 3 0,0
19.10.2018 11:00:00 14,3 11,4 15,7 16,8 0 0 12 7 N 1019,2 20 0 0,0
19.10.2018 10:00:00 13,2 11,1 14,9 16,8 6 3 14 8 E 1019,2 20 20 0,0
19.10.2018 09:00:00 12,6 10,8 10,6 17,0 5 3 10 5 ESE 1018,6 20 43 0,0
19.10.2018 08:00:00 11,4 10,3 10,0 17,1 4 2 11 6 E 1018,3 20 0 0,0
19.10.2018 07:00:00 10,9 10,6 10,3 17,2 5 3 10 5 E 1017,8 16 0 0,0
19.10.2018 06:00:00 11,5 10,9 10,7 17,3 6 3 17 9 NNE 1017,9 17 0 0,0
19.10.2018 05:00:00 11,1 10,8 11,0 17,5 6 3 10 6 NNE 1017,8 16 0 0,0
19.10.2018 04:00:00 11,2 10,9 11,2 17,6 6 3 11 6 NNE 1017,5 15 0 0,2
19.10.2018 03:00:00 11,6 11,1 11,3 17,7 6 3 11 6 NE 1017,7 15 0 0,0
19.10.2018 02:00:00 12,1 11,5 12,2 17,8 6 3 14 8 NE 1017,5 19 0 0,0
19.10.2018 01:00:00 12,5 11,7 12,5 17,9 6 3 12 7 NNE 1017,0 20 0 0,0
19.10.2018 00:00:00 13,5 12,2 13,2 18,0 7 4 17 9 E 1016,5 20 0 0,0
18.10.2018 23:00:00 14,3 12,8 13,4 18,1 4 2 9 5 E 1015,6 20 0 0,0
18.10.2018 22:00:00 14,8 13,0 14,4 18,1 0 0 9 5 N 1015,1 20 0 0,0
18.10.2018 21:00:00 15,7 13,4 15,3 18,2 5 3 9 5 WNW 1014,4 20 0 0,0
18.10.2018 20:00:00 17,1 13,8 17,3 18,1 4 2 6 3 N 1013,8 20 0 0,0
18.10.2018 19:00:00 18,0 14,1 17,8 18,1 0 0 7 4 N 1013,1 20 0 0,0
18.10.2018 18:00:00 20,4 13,8 20,5 18,0 5 3 11 6 S 1012,5 20 0 0,0
18.10.2018 17:00:00 21,6 13,2 22,9 17,8 9 5 20 11 SW 1012,3 20 6 0,0
18.10.2018 16:00:00 21,9 13,0 24,0 17,5 12 6 17 9 SSW 1012,2 20 0 0,0
18.10.2018 15:00:00 22,3 12,8 26,5 17,3 11 6 17 9 SSW 1012,2 20 50 0,0
18.10.2018 14:00:00 22,3 11,7 26,8 17,1 7 4 14 8 SSW 1012,5 20 48 0,0
18.10.2018 13:00:00 21,7 12,8 26,3 17,0 3 1 15 8 SW 1013,2 20 60 0,0
18.10.2018 12:00:00 18,9 12,9 21,5 16,9 10 5 18 10 NNE 1014,0 20 51 0,0
18.10.2018 11:00:00 16,4 14,1 16,7 16,9 5 3 11 6 E 1014,9 20 22 0,0
18.10.2018 10:00:00 14,4 13,4 15,0 17,0 3 2 12 6 E 1015,4 15 2 0,0
18.10.2018 09:00:00 13,7 12,4 13,8 17,0 8 4 16 9 E 1015,4 20 4 0,0
18.10.2018 08:00:00 13,1 12,3 13,2 17,1 5 3 14 8 ENE 1015,2 20 0 0,0
18.10.2018 07:00:00 12,9 12,4 13,3 17,2 4 2 14 8 NE 1014,9 14 0 0,0
18.10.2018 06:00:00 13,1 12,5 13,3 17,2 3 2 10 5 E 1014,5 11 0 0,0
18.10.2018 05:00:00 12,7 12,5 12,6 17,3 4 2 8 4 E 1014,7 6 0 0,0
18.10.2018 04:00:00 13,5 13,3 13,5 17,4 5 3 8 4 E 1014,9 5 0 0,0
18.10.2018 03:00:00 14,2 13,9 14,7 17,4 3 2 6 3 ENE 1015,4 10 0 0,0
18.10.2018 02:00:00 14,4 14,1 14,9 17,5 3 2 6 3 ENE 1015,6 5 0 0,2
18.10.2018 01:00:00 14,6 14,0 15,0 17,5 2 1 6 3 E 1015,9 8 0 0,2
18.10.2018 00:00:00 15,0 13,9 15,3 17,5 2 1 5 3 E 1015,8 13 0 0,2
17.10.2018 23:00:00 15,3 14,0 15,6 17,5 3 1 6 4 NE 1016,0 18 0 0,0
17.10.2018 22:00:00 15,2 13,6 15,6 17,6 3 1 8 5 ENE 1015,7 20 0 0,0
17.10.2018 21:00:00 15,7 14,1 16,1 17,6 4 2 9 5 SE 1015,5 20 0 0,0
17.10.2018 20:00:00 16,0 14,4 16,3 17,5 0 0 6 4 N 1015,2 19 0 0,0
17.10.2018 19:00:00 16,6 14,6 16,8 17,5 3 2 5 3 NW 1014,6 20 0 0,0
17.10.2018 18:00:00 17,8 14,3 18,4 17,4 2 1 5 3 WNW 1014,2 20 0 0,0
17.10.2018 17:00:00 18,9 13,5 20,4 17,2 5 3 9 5 W 1014,1 20 5 0,0
17.10.2018 16:00:00 19,0 13,4 21,6 17,1 3 2 9 5 S 1014,3 20 0 0,0
17.10.2018 15:00:00 19,0 12,3 21,7 16,9 4 2 9 5 WSW 1014,6 20 0 0,0
17.10.2018 14:00:00 18,5 11,1 21,7 16,8 3 2 6 4 SSW 1015,1 20 0 0,0
17.10.2018 13:00:00 17,1 12,8 18,5 16,8 2 1 5 3 S 1016,3 20 1 0,0
17.10.2018 12:00:00 15,5 12,1 17,0 16,7 3 2 8 5 SSE 1017,2 20 0 0,0

tt = Température de l'air
td = dewpoint
tt 5cm = Température de l'air 5cm
tt -20cm = Température de l'air -20cm
ff = Vitesse du vent
fx = gusts
dd = Direction du vent
ppp = reduced air pressure
vv = visibility
sd = Ensoleillement
rr = Quantités de précipitations

stations d'obs. à proximité